Regional Weather Roundup
Issued by NWS State College, PA

Home | Current Version | Previous Version | Graphics & Text | Print | Product List | Glossary Off
Versions: 1 2 3 4 5 6 7 8 9 10 11 12 13 14 15 16 17 18 19 20 21 22 23 24 25 26 27 28 29 30 31 32 33 34 35 36 37 38 39 40 41 42 43 44 45 46 47 48 49 50

463
ASUS41 KCTP 220410
RWRCTP

REGIONAL WEATHER ROUNDUP
NATIONAL WEATHER SERVICE STATE COLLEGE PA
1100 PM EST TUE FEB 21 2017

Note: "fair" indicates few or no clouds below 12,000 feet with no
significant weather and/or obstructions to visibility.

* = STATION THAT DOES NOT REPORT PRECIPITATION /E.G. RAIN...SNOW...ETC/
    THUNDER OR FOG.

PAZ002>004-007>009-013>016-020>023-029>032-220500-
WESTERN PENNSYLVANIA

CITY           SKY/WX    TMP DP  RH WIND       PRES   REMARKS
ERIE           CLOUDY    50  44  80 CALM      29.95F
MEADVILLE      CLOUDY    55  41  59 CALM      29.96F
FRANKLIN*      CLOUDY    52  36  54 CALM      29.98S
NEW CASTLE     CLOUDY    55  44  66 CALM      29.96F
BEAVER COUNTY  NOT AVBL
BUTLER*        CLOUDY    54  43  66 CALM      29.97S
PITTSBURGH INT CLOUDY    58  44  60 S3        29.95F
PITTSBURGH     CLOUDY    57  35  43 S9        29.96F
INDIANA*       CLOUDY    54  36  50 S7        30.01F
LATROBE        MOCLDY    50  39  66 CALM      29.99F
WASHINGTON CO* CLOUDY    52  43  71 CALM      29.98F
$$

PAZ004>006-010>012-017>019-024>028-033>037-041-042-045-046-049>053-220500-
CENTRAL PENNSYLVANIA

CITY           SKY/WX    TMP DP  RH WIND       PRES   REMARKS
BRADFORD       CLOUDY    43  31  62 SE6       29.98F
DUBOIS         CLOUDY    46  30  53 E5        29.97F
CLEARFIELD       N/A    N/A N/A N/A MISG      30.01F
JOHNSTOWN      CLOUDY    48  34  58 S9        30.01F
ALTOONA        CLOUDY    47  35  63 CALM      30.04F
STATE COLLEGE  CLOUDY    47  32  55 SW8       30.03F
WILLIAMSPORT   NOT AVBL
SELINSGROVE    NOT AVBL
FT INDIANTOWN  PTCLDY    41  35  76 CALM      30.11F
CAPITAL CITY   NOT AVBL
HARRISBURG     CLOUDY    45  35  68 SE6       30.10F
YORK           NOT AVBL
$$

PAZ038>040-043-044-047-048-054-055-060>062-067>071-220500-
EASTERN PENNSYLVANIA

CITY           SKY/WX    TMP DP  RH WIND       PRES   REMARKS
SCRANTON       NOT AVBL
MOUNT POCONO   NOT AVBL
ALLENTOWN      NOT AVBL
QUAKERTOWN*    PTCLDY    41  32  70 SW3       30.13F
READING        NOT AVBL
LANCASTER      CLOUDY    40  36  86 E3        30.12F
COATESVILLE    MOCLDY    39  34  81 S5        30.13F
POTTSTOWN      NOT AVBL
BLUE BELL      CLOUDY    41  32  70 S5        30.13F
DOYLESTOWN     NOT AVBL
WILLOW GROVE   NOT AVBL
NORTH PHILA    NOT AVBL
PHILADELPHIA   CLOUDY    42  33  70 S7        30.16F
$$




USA.gov is the U.S. government's official web portal to all federal, state and local government web resources and services.